• In Hungary
  • List of Countries
  • For 7 days
  • Water Temperature
  • Satellite Maps
  • Weather Map
  • News
  • Weather Widgets
  • user-avatar
    Login

    Hourly Weather Ondjiwa

    Today, 22 July, Sunday

    Time Temperature Precipitation Wind Pressure Humidity
    00:00 +16°C° 0 mm 3 mps 670 mmHg 49%
    01:00 +13°C° 0 mm 3 mps 670 mmHg 52%
    02:00 +13°C° 0 mm 3 mps 669 mmHg 53%
    03:00 +13°C° 0 mm 3 mps 669 mmHg 55%
    04:00 +12°C° 0 mm 3 mps 669 mmHg 56%
    05:00 +12°C° 0 mm 3 mps 669 mmHg 56%
    06:00 +12°C° 0 mm 3 mps 669 mmHg 56%
    07:00 +12°C° 0 mm 3 mps 670 mmHg 56%
    08:00 +15°C° 0 mm 4 mps 671 mmHg 47%
    09:00 +20°C° 0 mm 5 mps 672 mmHg 37%
    10:00 +24°C° 0 mm 6 mps 672 mmHg 28%
    11:00 +26°C° 0 mm 5 mps 672 mmHg 25%
    12:00 +28°C° 0 mm 5 mps 672 mmHg 22%
    13:00 +28°C° 0 mm 4 mps 672 mmHg 20%
    14:00 +28°C° 0 mm 4 mps 671 mmHg 19%
    15:00 +29°C° 0 mm 3 mps 671 mmHg 19%
    16:00 +29°C° 0 mm 3 mps 671 mmHg 18%
    17:00 +26°C° 0 mm 3 mps 670 mmHg 22%
    18:00 +24°C° 0 mm 2 mps 670 mmHg 27%
    19:00 +20°C° 0 mm 2 mps 670 mmHg 31%
    20:00 +19°C° 0 mm 2 mps 670 mmHg 33%
    21:00 +18°C° 0 mm 3 mps 670 mmHg 35%
    22:00 +17°C° 0 mm 3 mps 671 mmHg 37%
    23:00 +17°C° 0 mm 3 mps 671 mmHg 38%

    Tomorrow, 23 July, Monday

    Time Temperature Precipitation Wind Pressure Humidity
    00:00 +17°C° 0 mm 3 mps 670 mmHg 39%
    01:00 +15°C° 0 mm 4 mps 670 mmHg 40%
    02:00 +15°C° 0 mm 4 mps 670 mmHg 40%
    03:00 +14°C° 0 mm 4 mps 670 mmHg 40%
    04:00 +14°C° 0 mm 4 mps 670 mmHg 40%
    05:00 +13°C° 0 mm 4 mps 670 mmHg 42%
    06:00 +13°C° 0 mm 4 mps 671 mmHg 43%
    07:00 +13°C° 0 mm 4 mps 671 mmHg 44%
    08:00 +16°C° 0 mm 5 mps 672 mmHg 38%
    09:00 +20°C° 0 mm 5 mps 672 mmHg 32%
    10:00 +24°C° 0 mm 6 mps 673 mmHg 27%
    11:00 +26°C° 0 mm 6 mps 673 mmHg 24%
    12:00 +28°C° 0 mm 5 mps 673 mmHg 21%
    13:00 +29°C° 0 mm 5 mps 672 mmHg 18%
    14:00 +29°C° 0 mm 4 mps 672 mmHg 18%
    15:00 +29°C° 0 mm 4 mps 671 mmHg 18%
    16:00 +30°C° 0 mm 4 mps 670 mmHg 17%
    17:00 +27°C° 0 mm 3 mps 670 mmHg 21%
    18:00 +24°C° 0 mm 3 mps 670 mmHg 25%
    19:00 +21°C° 0 mm 2 mps 670 mmHg 29%
    20:00 +20°C° 0 mm 2 mps 670 mmHg 31%
    21:00 +19°C° 0 mm 3 mps 671 mmHg 33%
    22:00 +18°C° 0 mm 3 mps 671 mmHg 35%
    23:00 +17°C° 0 mm 3 mps 671 mmHg 36%

    Day after tomorrow, 24 July, Tuesday

    Time Temperature Precipitation Wind Pressure Humidity
    00:00 +17°C° 0 mm 3 mps 671 mmHg 36%
    01:00 +15°C° 0 mm 4 mps 671 mmHg 36%
    02:00 +15°C° 0 mm 4 mps 671 mmHg 38%
    03:00 +14°C° 0 mm 4 mps 671 mmHg 40%
    04:00 +14°C° 0 mm 4 mps 670 mmHg 42%
    05:00 +13°C° 0 mm 4 mps 671 mmHg 44%
    06:00 +13°C° 0 mm 4 mps 671 mmHg 47%
    07:00 +13°C° 0 mm 4 mps 671 mmHg 49%
    08:00 +16°C° 0 mm 5 mps 672 mmHg 42%
    09:00 +20°C° 0 mm 6 mps 673 mmHg 36%
    10:00 +24°C° 0 mm 7 mps 674 mmHg 29%
    11:00 +26°C° 0 mm 6 mps 673 mmHg 26%
    12:00 +28°C° 0 mm 6 mps 673 mmHg 23%
    13:00 +29°C° 0 mm 5 mps 672 mmHg 21%
    14:00 +29°C° 0 mm 4 mps 672 mmHg 20%
    15:00 +29°C° 0 mm 4 mps 671 mmHg 20%
    16:00 +29°C° 0 mm 4 mps 671 mmHg 19%
    17:00 +27°C° 0 mm 3 mps 670 mmHg 23%
    18:00 +24°C° 0 mm 3 mps 670 mmHg 27%
    19:00 +21°C° 0 mm 2 mps 670 mmHg 31%
    20:00 +20°C° 0 mm 2 mps 670 mmHg 33%
    21:00 +19°C° 0 mm 2 mps 671 mmHg 34%
    22:00 +18°C° 0 mm 3 mps 671 mmHg 36%
    23:00 +17°C° 0 mm 3 mps 671 mmHg 37%

    25 July, Wednesday

    Time Temperature Precipitation Wind Pressure Humidity
    00:00 +16°C° 0 mm 3 mps 671 mmHg 38%
    01:00 +14°C° 0 mm 3 mps 670 mmHg 39%
    02:00 +13°C° 0 mm 3 mps 670 mmHg 40%
    03:00 +13°C° 0 mm 3 mps 670 mmHg 41%
    04:00 +12°C° 0 mm 3 mps 669 mmHg 43%
    05:00 +12°C° 0 mm 3 mps 670 mmHg 44%
    06:00 +12°C° 0 mm 3 mps 670 mmHg 45%
    07:00 +12°C° 0 mm 3 mps 671 mmHg 46%
    08:00 +17°C° 0 mm 4 mps 671 mmHg 39%
    09:00 +21°C° 0 mm 5 mps 672 mmHg 32%
    10:00 +24°C° 0 mm 6 mps 673 mmHg 25%
    11:00 +27°C° 0 mm 6 mps 672 mmHg 22%
    12:00 +28°C° 0 mm 5 mps 672 mmHg 20%
    13:00 +30°C° 0 mm 5 mps 671 mmHg 17%
    14:00 +30°C° 0 mm 4 mps 671 mmHg 16%
    15:00 +30°C° 0 mm 4 mps 670 mmHg 16%
    16:00 +30°C° 0 mm 3 mps 670 mmHg 15%
    17:00 +27°C° 0 mm 3 mps 669 mmHg 18%
    18:00 +25°C° 0 mm 2 mps 669 mmHg 22%
    19:00 +21°C° 0 mm 2 mps 669 mmHg 25%
    20:00 +20°C° 0 mm 2 mps 669 mmHg 27%
    21:00 +19°C° 0 mm 3 mps 669 mmHg 28%
    22:00 +18°C° 0 mm 3 mps 670 mmHg 30%
    23:00 +17°C° 0 mm 3 mps 669 mmHg 31%

    26 July, Thursday

    Time Temperature Precipitation Wind Pressure Humidity
    00:00 +17°C° 0 mm 3 mps 669 mmHg 32%
    01:00 +16°C° 0 mm 3 mps 669 mmHg 33%
    02:00 +16°C° 0 mm 3 mps 669 mmHg 34%
    03:00 +14°C° 0 mm 3 mps 669 mmHg 35%
    04:00 +14°C° 0 mm 3 mps 669 mmHg 35%
    05:00 +14°C° 0 mm 3 mps 669 mmHg 36%
    06:00 +13°C° 0 mm 3 mps 669 mmHg 37%
    07:00 +13°C° 0 mm 3 mps 670 mmHg 38%
    08:00 +18°C° 0 mm 4 mps 670 mmHg 31%
    09:00 +21°C° 0 mm 4 mps 671 mmHg 24%
    10:00 +26°C° 0 mm 5 mps 672 mmHg 17%
    11:00 +28°C° 0 mm 4 mps 671 mmHg 15%
    12:00 +30°C° 0 mm 4 mps 671 mmHg 13%
    13:00 +33°C° 0 mm 3 mps 670 mmHg 11%
    14:00 +32°C° 0 mm 2 mps 669 mmHg 11%
    15:00 +32°C° 0 mm 2 mps 669 mmHg 10%
    16:00 +32°C° 0 mm 1 mps 668 mmHg 9%
    17:00 +29°C° 0 mm 1 mps 668 mmHg 12%
    18:00 +26°C° 0 mm 1 mps 668 mmHg 14%
    19:00 +20°C° 0 mm 0 mps 667 mmHg 17%
    20:00 +22°C° 0 mm 1 mps 668 mmHg 17%
    21:00 +21°C° 0 mm 1 mps 668 mmHg 18%
    22:00 +20°C° 0 mm 2 mps 668 mmHg 19%
    23:00 +18°C° 0 mm 2 mps 668 mmHg 21%

    27 July, Friday

    Time Temperature Precipitation Wind Pressure Humidity
    00:00 +17°C° 0 mm 2 mps 668 mmHg 23%
    01:00 +16°C° 0 mm 1 mps 668 mmHg 26%
    02:00 +15°C° 0 mm 1 mps 668 mmHg 27%
    03:00 +15°C° 0 mm 1 mps 668 mmHg 29%
    04:00 +14°C° 0 mm 1 mps 668 mmHg 31%
    05:00 +14°C° 0 mm 1 mps 668 mmHg 32%
    06:00 +14°C° 0 mm 1 mps 668 mmHg 34%
    07:00 +14°C° 0 mm 1 mps 669 mmHg 35%
    08:00 +18°C° 0 mm 1 mps 670 mmHg 29%
    09:00 +21°C° 0 mm 2 mps 670 mmHg 23%
    10:00 +26°C° 0 mm 2 mps 671 mmHg 17%
    11:00 +28°C° 0 mm 2 mps 671 mmHg 15%
    12:00 +30°C° 0 mm 2 mps 670 mmHg 13%
    13:00 +32°C° 0 mm 2 mps 670 mmHg 11%
    14:00 +32°C° 0 mm 2 mps 669 mmHg 11%
    15:00 +32°C° 0 mm 1 mps 669 mmHg 10%
    16:00 +32°C° 0 mm 1 mps 668 mmHg 10%
    17:00 +29°C° 0 mm 1 mps 668 mmHg 13%
    18:00 +26°C° 0 mm 2 mps 668 mmHg 15%
    19:00 +23°C° 0 mm 2 mps 668 mmHg 18%
    20:00 +21°C° 0 mm 2 mps 668 mmHg 19%
    21:00 +20°C° 0 mm 2 mps 668 mmHg 21%
    22:00 +19°C° 0 mm 2 mps 668 mmHg 22%
    23:00 +18°C° 0 mm 2 mps 668 mmHg 23%
    Show more